Location: �mondeville
(49.4591°N, 1.3431°W)
Time: 10:36:35
(UTC+00:00)

ADEOS Rocket - Pass Details

Date: 22 October 2019
Orbit: 859 x 1306 km, 98.7° (Epoch: 17 November)

Event Time Altitude Azimuth Distance (km) Brightness Sun altitude
Rises 05:58:23 0° 142° (SE) 4,060 7.0 -6.9°
Reaches altitude 10° 06:00:59 10° 138° (SE) 3,152 6.5 -6.5°
Maximum altitude 06:08:02 52° 64° (ENE) 1,549 4.5 -5.4°
Drops below altitude 10° 06:15:30 10° 352° (N) 3,334 5.6 -4.2°
Sets 06:18:18 0° 348° (NNW) 4,312 6.1 -3.8°
